Location: Chuathbaluk
(61.5726°N, 159.2454°W)
Time: 21:50:28
(UTC+00:00)

Transit 4A - Pass Details

Date: 28 November 2020
Orbit: 864 x 981 km, 66.8° (Epoch: 19 January)

Event Time Altitude Azimuth Distance (km) Brightness Sun altitude
Rises 04:34:11 0° 311° (NW) 3,692 11.6 -19.8°
Reaches altitude 10° 04:37:32 10° 295° (WNW) 2,732 11.2 -20.2°
Maximum altitude 04:41:45 19° 253° (WSW) 2,143 10.7 -20.7°
Drops below altitude 10° 04:45:53 10° 212° (SSW) 2,685 10.8 -21.2°
Sets 04:49:10 0° 195° (SSW) 3,606 11.2 -21.5°
